Find Starlink 32041

NORAD ID: 60202 Int'l Des: 2024-124 Owner: SPXS Country: US Constellation: starlink operational
LEOCIRCULAR

Current View

Loading 3D Globe...

About Starlink 32041

Starlink 32041 (NORAD 60202) is a starlink constellation satellite (v2 mini) launched Jul 3, 2024 by SPXS of US. It operates in LEO, CIRCULAR orbit with a mass of 730.00 kg.

Upcoming Passes

Passes for default location (London). Set your location on the main map for personalized predictions.

Altitude History

Loading altitude history...

Two-Line Element Set

1 60202U 24124V 26235.12878828 -.00001050 00000-0 -22072-4 0 9990
2 60202 53.1601 268.3109 0001004 80.0096 280.1019 15.31699677120991
Epoch: Aug 23, 2026 • Age: 26 hours

Current Status

Altitude 489.9 km
Apogee / Perigee N/A
Velocity 7.62 km/s
Sub-Earth Point -53.25°S, 117.06°E
Launch Date Jul 3, 2024
Age 2.1 years
Type internet

Technical Details

Classification Payload
Mass 730.00 kg
Dry Mass 700.00 kg
Total Mass 730.00 kg
Length 0.30 m
Diameter 4.10 m
Span 29.00 m
Shape Box + pan
Manufacturer SPXS
Bus Type Starlink V2M
Phase Status In Orbit
Owner/State SPXS/US

Most Searched